| time (UTC) | temp C | wind direction | speed KPH | gust KPH | rain 1hr cm | rain 24hr cm | rain mn cm | humidity % | barometer mb |
| 20260906035921 | 16 | 113 | 0.0 | 0.0 | 0.00 | 0.00 | 0.00 | 96 | 1013.8 |
| 20260906035421 | 16 | 225 | 0.0 | 0.0 | 0.00 | 0.00 | 0.00 | 96 | 1013.7 |
| 20260906034922 | 16 | 277 | 0.0 | 0.0 | 0.00 | 0.00 | 0.00 | 96 | 1013.7 |
| 20260906034422 | 16 | 306 | 0.0 | 0.0 | 0.00 | 0.00 | 0.00 | 96 | 1013.7 |
| 20260906033922 | 16 | 186 | 0.0 | 0.0 | 0.00 | 0.00 | 0.00 | 96 | 1013.6 |
| 20260906033422 | 16 | 247 | 0.0 | 0.0 | 0.00 | 0.00 | 0.00 | 96 | 1013.6 |
| 20260906032924 | 16 | 259 | 0.0 | 0.0 | 0.00 | 0.00 | 0.00 | 96 | 1013.6 |
| 20260906032422 | 16 | 263 | 0.0 | 0.0 | 0.00 | 0.00 | 0.00 | 96 | 1013.7 |
| 20260906031922 | 16 | 277 | 0.0 | 0.0 | 0.00 | 0.00 | 0.00 | 96 | 1013.6 |
| 20260906031422 | 16 | 263 | 0.0 | 0.0 | 0.00 | 0.00 | 0.00 | 95 | 1013.6 |
| 20260906030422 | 17 | 270 | 0.0 | 0.0 | 0.00 | 0.00 | 0.00 | 95 | 1013.5 |
| 20260906014422 | 18 | 0.0 | 0.0 | 0.00 | 0.00 | 0.00 | 91 | 1012.7 | |
| 20260906013922 | 18 | 0.0 | 0.0 | 0.00 | 0.00 | 0.00 | 91 | 1012.6 | |
| 20260906013422 | 18 | 127 | 0.0 | 0.0 | 0.00 | 0.00 | 0.00 | 91 | 1012.6 |
| 20260906012922 | 18 | 0.0 | 0.0 | 0.00 | 0.00 | 0.00 | 91 | 1012.5 | |
| 20260906012422 | 18 | 0.0 | 0.0 | 0.00 | 0.00 | 0.00 | 90 | 1012.5 | |
| 20260906011924 | 18 | 0.0 | 0.0 | 0.00 | 0.00 | 0.00 | 90 | 1012.6 | |
| 20260906011422 | 18 | 0.0 | 0.0 | 0.00 | 0.00 | 0.00 | 90 | 1012.4 | |
| 20260906002422 | 20 | 0.0 | 0.0 | 0.00 | 0.00 | 0.00 | 87 | 1012.0 | |
| 20260906001922 | 20 | 0.0 | 0.0 | 0.00 | 0.00 | 0.00 | 87 | 1012.1 | |
| 20260906001421 | 21 | 0.0 | 0.0 | 0.00 | 0.00 | 0.00 | 84 | 1012.0 | |
| 20260906000922 | 21 | 0.0 | 0.0 | 0.00 | 0.00 | 0.00 | 84 | 1011.9 | |
| 20260906000422 | 21 | 270 | 0.0 | 0.0 | 0.00 | 0.00 | 0.00 | 83 | 1011.8 |
| 20260905235922 | 21 | 270 | 0.0 | 0.0 | 0.00 | 0.00 | 0.00 | 82 | 1011.8 |
| 20260905234921 | 22 | 281 | 0.0 | 0.0 | 0.00 | 0.00 | 0.00 | 78 | 1011.7 |
| 20260905234421 | 22 | 285 | 0.0 | 0.0 | 0.00 | 0.00 | 0.00 | 78 | 1011.7 |
| 20260905233922 | 23 | 270 | 0.0 | 0.0 | 0.00 | 0.00 | 0.00 | 76 | 1011.7 |
| 20260905232922 | 24 | 259 | 0.0 | 0.0 | 0.00 | 0.00 | 0.00 | 71 | 1011.7 |
| 20260905232422 | 25 | 270 | 0.0 | 0.0 | 0.00 | 0.00 | 0.00 | 71 | 1011.7 |
| 20260905231922 | 25 | 281 | 0.0 | 0.0 | 0.00 | 0.00 | 0.00 | 66 | 1011.6 |
| 20260905230922 | 25 | 270 | 1.6 | 0.0 | 0.00 | 0.00 | 0.00 | 69 | 1011.4 |
| 20260905225422 | 25 | 182 | 0.0 | 0.0 | 0.00 | 0.00 | 0.00 | 67 | 1011.5 |
| 20260905224921 | 25 | 262 | 0.0 | 0.0 | 0.00 | 0.00 | 0.00 | 66 | 1011.4 |
| 20260905224422 | 26 | 204 | 0.0 | 0.0 | 0.00 | 0.00 | 0.00 | 62 | 1011.3 |
| 20260905223922 | 26 | 120 | 0.0 | 0.0 | 0.00 | 0.00 | 0.00 | 59 | 1011.4 |
| 20260905223422 | 27 | 225 | 0.0 | 0.0 | 0.00 | 0.00 | 0.00 | 60 | 1011.5 |
| 20260905221922 | 27 | 225 | 1.6 | 0.0 | 0.00 | 0.00 | 0.00 | 57 | 1011.3 |
| 20260905221422 | 27 | 149 | 3.2 | 0.0 | 0.00 | 0.00 | 0.00 | 57 | 1011.3 |
| 20260905220922 | 26 | 101 | 3.2 | 0.0 | 0.00 | 0.00 | 0.00 | 60 | 1011.2 |
| 20260905220422 | 26 | 202 | 3.2 | 0.0 | 0.00 | 0.00 | 0.00 | 58 | 1011.3 |
| 20260905215922 | 26 | 241 | 1.6 | 0.0 | 0.00 | 0.00 | 0.00 | 58 | 1011.2 |
| 20260905214921 | 27 | 291 | 1.6 | 0.0 | 0.00 | 0.00 | 0.00 | 59 | 1011.2 |
| 20260905214422 | 27 | 345 | 3.2 | 0.0 | 0.00 | 0.00 | 0.00 | 56 | 1011.2 |
| 20260905213921 | 27 | 180 | 0.0 | 0.0 | 0.00 | 0.00 | 0.00 | 55 | 1011.1 |
| 20260905212922 | 27 | 293 | 0.0 | 0.0 | 0.00 | 0.00 | 0.00 | 57 | 1011.1 |
| 20260905211422 | 28 | 270 | 3.2 | 0.0 | 0.00 | 0.00 | 0.00 | 54 | 1011.1 |
| 20260905210922 | 28 | 293 | 3.2 | 0.0 | 0.00 | 0.00 | 0.00 | 54 | 1011.1 |
| 20260905210422 | 28 | 283 | 3.2 | 0.0 | 0.00 | 0.00 | 0.00 | 52 | 1011.0 |
| 20260905205922 | 28 | 277 | 1.6 | 0.0 | 0.00 | 0.00 | 0.00 | 54 | 1011.0 |
| 20260905205422 | 28 | 283 | 4.8 | 0.0 | 0.00 | 0.00 | 0.00 | 53 | 1011.1 |
| 20260905204922 | 28 | 297 | 4.8 | 0.0 | 0.00 | 0.00 | 0.00 | 51 | 1011.1 |
| 20260905204422 | 28 | 339 | 1.6 | 0.0 | 0.00 | 0.00 | 0.00 | 51 | 1011.1 |
| 20260905203922 | 28 | 239 | 4.8 | 0.0 | 0.00 | 0.00 | 0.00 | 52 | 1011.1 |
| 20260905203422 | 28 | 293 | 4.8 | 0.0 | 0.00 | 0.00 | 0.00 | 55 | 1011.1 |
| 20260905202921 | 28 | 216 | 4.8 | 0.0 | 0.00 | 0.00 | 0.00 | 53 | 1011.2 |
| 20260905202422 | 30 | 214 | 4.8 | 0.0 | 0.00 | 0.00 | 0.00 | 53 | 1011.1 |
| 20260905201921 | 29 | 37 | 1.6 | 0.0 | 0.00 | 0.00 | 0.00 | 53 | 1011.2 |
| 20260905201421 | 28 | 270 | 4.8 | 0.0 | 0.00 | 0.00 | 0.00 | 51 | 1011.3 |
| 20260905200921 | 29 | 231 | 4.8 | 0.0 | 0.00 | 0.00 | 0.00 | 51 | 1011.3 |
| 20260905200422 | 29 | 191 | 4.8 | 0.0 | 0.00 | 0.00 | 0.00 | 52 | 1011.2 |
| 20260905195921 | 28 | 255 | 4.8 | 0.0 | 0.00 | 0.00 | 0.00 | 54 | 1011.2 |
| 20260905195421 | 28 | 334 | 4.8 | 0.0 | 0.00 | 0.00 | 0.00 | 53 | 1011.3 |
| 20260905194422 | 28 | 357 | 4.8 | 0.0 | 0.00 | 0.00 | 0.00 | 52 | 1011.3 |
| 20260905193921 | 28 | 283 | 3.2 | 0.0 | 0.00 | 0.00 | 0.00 | 55 | 1011.3 |
| 20260905193421 | 28 | 234 | 3.2 | 0.0 | 0.00 | 0.00 | 0.00 | 56 | 1011.3 |
| 20260905192922 | 27 | 132 | 6.4 | 0.0 | 0.00 | 0.00 | 0.00 | 56 | 1011.4 |
| 20260905192422 | 26 | 230 | 1.6 | 0.0 | 0.00 | 0.00 | 0.00 | 60 | 1011.3 |
| 20260905191922 | 27 | 130 | 3.2 | 0.0 | 0.00 | 0.00 | 0.00 | 60 | 1011.4 |
| 20260905191422 | 28 | 105 | 3.2 | 0.0 | 0.00 | 0.00 | 0.00 | 57 | 1011.4 |
| 20260905190921 | 29 | 124 | 6.4 | 0.0 | 0.00 | 0.00 | 0.00 | 56 | 1011.3 |
| 20260905190421 | 28 | 128 | 3.2 | 0.0 | 0.00 | 0.00 | 0.00 | 55 | 1011.4 |
| 20260905185421 | 28 | 234 | 1.6 | 0.0 | 0.00 | 0.00 | 0.00 | 54 | 1011.5 |
| 20260905184922 | 28 | 277 | 8.0 | 0.0 | 0.00 | 0.00 | 0.00 | 55 | 1011.5 |
| 20260905184421 | 28 | 270 | 9.7 | 0.0 | 0.00 | 0.00 | 0.00 | 54 | 1011.5 |
| 20260905183921 | 28 | 270 | 6.4 | 0.0 | 0.00 | 0.00 | 0.00 | 55 | 1011.6 |
| 20260905183422 | 28 | 255 | 6.4 | 0.0 | 0.00 | 0.00 | 0.00 | 55 | 1011.6 |
| 20260905182422 | 28 | 285 | 8.0 | 0.0 | 0.00 | 0.00 | 0.00 | 54 | 1011.8 |
| 20260905181921 | 28 | 242 | 9.7 | 0.0 | 0.00 | 0.00 | 0.00 | 55 | 1011.9 |
| 20260905181421 | 27 | 246 | 4.8 | 0.0 | 0.00 | 0.00 | 0.00 | 55 | 1011.9 |
| 20260905180922 | 28 | 300 | 6.4 | 0.0 | 0.00 | 0.00 | 0.00 | 55 | 1011.9 |
| 20260905180421 | 28 | 142 | 3.2 | 0.0 | 0.00 | 0.00 | 0.00 | 59 | 1011.9 |
| 20260905175921 | 28 | 285 | 8.0 | 0.0 | 0.00 | 0.00 | 0.00 | 56 | 1011.9 |
| 20260905175422 | 28 | 135 | 4.8 | 0.0 | 0.00 | 0.00 | 0.00 | 58 | 1011.9 |
| 20260905174921 | 27 | 250 | 3.2 | 0.0 | 0.00 | 0.00 | 0.00 | 61 | 1011.9 |
| 20260905174421 | 27 | 345 | 4.8 | 0.0 | 0.00 | 0.00 | 0.00 | 59 | 1011.9 |
| 20260905173922 | 27 | 270 | 6.4 | 0.0 | 0.00 | 0.00 | 0.00 | 58 | 1011.9 |
| 20260905173422 | 28 | 208 | 4.8 | 0.0 | 0.00 | 0.00 | 0.00 | 57 | 1011.9 |
| 20260905172922 | 28 | 270 | 3.2 | 0.0 | 0.00 | 0.00 | 0.00 | 56 | 1012.0 |
| 20260905172422 | 28 | 312 | 3.2 | 0.0 | 0.00 | 0.00 | 0.00 | 60 | 1012.0 |
| 20260905171922 | 28 | 257 | 9.7 | 0.0 | 0.00 | 0.00 | 0.00 | 58 | 1012.0 |
| 20260905171421 | 28 | 281 | 1.6 | 0.0 | 0.00 | 0.00 | 0.00 | 60 | 1012.2 |
| 20260905165922 | 28 | 252 | 6.4 | 0.0 | 0.00 | 0.00 | 0.00 | 60 | 1012.1 |
| 20260905164422 | 27 | 225 | 3.2 | 0.0 | 0.00 | 0.00 | 0.00 | 61 | 1012.3 |
| 20260905162921 | 28 | 105 | 4.8 | 0.0 | 0.00 | 0.00 | 0.00 | 58 | 1012.5 |
| 20260905162421 | 28 | 281 | 3.2 | 0.0 | 0.00 | 0.00 | 0.00 | 60 | 1012.6 |
| 20260905161922 | 27 | 290 | 3.2 | 0.0 | 0.00 | 0.00 | 0.00 | 62 | 1012.7 |
| 20260905160922 | 26 | 255 | 3.2 | 0.0 | 0.00 | 0.00 | 0.00 | 62 | 1012.7 |
| 20260905160422 | 26 | 277 | 6.4 | 0.0 | 0.00 | 0.00 | 0.00 | 66 | 1012.8 |
| 20260905155922 | 26 | 270 | 6.4 | 0.0 | 0.00 | 0.00 | 0.00 | 66 | 1012.9 |
| 20260905154921 | 27 | 285 | 4.8 | 0.0 | 0.00 | 0.00 | 0.00 | 64 | 1012.9 |
| 20260905154422 | 26 | 332 | 4.8 | 0.0 | 0.00 | 0.00 | 0.00 | 66 | 1012.9 |
| 20260905153921 | 26 | 263 | 3.2 | 0.0 | 0.00 | 0.00 | 0.00 | 69 | 1012.9 |
| 20260905152921 | 26 | 113 | 3.2 | 0.0 | 0.00 | 0.00 | 0.00 | 66 | 1012.8 |
| 20260905151421 | 26 | 293 | 3.2 | 0.0 | 0.00 | 0.00 | 0.00 | 66 | 1012.9 |
| 20260905150922 | 25 | 279 | 3.2 | 0.0 | 0.00 | 0.00 | 0.00 | 68 | 1012.9 |
| 20260905150421 | 26 | 255 | 0.0 | 0.0 | 0.00 | 0.00 | 0.00 | 68 | 1013.0 |
| 20260905145921 | 26 | 315 | 4.8 | 0.0 | 0.00 | 0.00 | 0.00 | 69 | 1012.9 |
| 20260905145422 | 26 | 167 | 3.2 | 0.0 | 0.00 | 0.00 | 0.00 | 69 | 1012.7 |
| 20260905144421 | 26 | 34 | 4.8 | 0.0 | 0.00 | 0.00 | 0.00 | 69 | 1012.8 |
| 20260905143921 | 25 | 270 | 1.6 | 0.0 | 0.00 | 0.00 | 0.00 | 70 | 1012.8 |
| 20260905143421 | 25 | 165 | 4.8 | 0.0 | 0.00 | 0.00 | 0.00 | 72 | 1012.7 |
| 20260905142921 | 26 | 180 | 3.2 | 0.0 | 0.00 | 0.00 | 0.00 | 70 | 1012.5 |
| 20260905142421 | 26 | 245 | 3.2 | 0.0 | 0.00 | 0.00 | 0.00 | 69 | 1012.5 |
| 20260905141922 | 25 | 135 | 1.6 | 0.0 | 0.00 | 0.00 | 0.00 | 72 | 1012.3 |
| 20260905141422 | 25 | 255 | 1.6 | 0.0 | 0.00 | 0.00 | 0.00 | 74 | 1012.3 |
| 20260905140922 | 25 | 240 | 1.6 | 0.0 | 0.00 | 0.00 | 0.00 | 74 | 1012.3 |
| 20260905140422 | 25 | 164 | 1.6 | 0.0 | 0.00 | 0.00 | 0.00 | 74 | 1012.4 |
| 20260905135921 | 25 | 146 | 1.6 | 0.0 | 0.00 | 0.00 | 0.00 | 74 | 1012.3 |
| 20260905135421 | 25 | 341 | 0.0 | 0.0 | 0.00 | 0.00 | 0.00 | 75 | 1012.4 |
| 20260905134921 | 24 | 257 | 1.6 | 0.0 | 0.00 | 0.00 | 0.00 | 76 | 1012.5 |
| 20260905133921 | 23 | 293 | 1.6 | 0.0 | 0.00 | 0.00 | 0.00 | 79 | 1012.7 |
| 20260905133422 | 23 | 225 | 0.0 | 0.0 | 0.00 | 0.00 | 0.00 | 80 | 1012.7 |
| 20260905132922 | 23 | 253 | 0.0 | 0.0 | 0.00 | 0.00 | 0.00 | 81 | 1012.8 |
| 20260905132421 | 23 | 263 | 4.8 | 0.0 | 0.00 | 0.00 | 0.00 | 81 | 1012.8 |
| 20260905131921 | 23 | 294 | 0.0 | 0.0 | 0.00 | 0.00 | 0.00 | 84 | 1012.9 |
| 20260905131421 | 23 | 228 | 0.0 | 0.0 | 0.00 | 0.00 | 0.00 | 83 | 1012.6 |
| 20260905130422 | 23 | 265 | 0.0 | 0.0 | 0.00 | 0.00 | 0.00 | 85 | 1012.7 |
| 20260905125922 | 23 | 285 | 0.0 | 0.0 | 0.00 | 0.00 | 0.00 | 82 | 1012.7 |
| 20260905124921 | 23 | 240 | 0.0 | 0.0 | 0.00 | 0.00 | 0.00 | 85 | 1012.4 |
| 20260905124422 | 22 | 218 | 0.0 | 0.0 | 0.00 | 0.00 | 0.00 | 85 | 1012.4 |
| 20260905123921 | 23 | 276 | 0.0 | 0.0 | 0.00 | 0.00 | 0.00 | 85 | 1012.4 |
| 20260905123421 | 23 | 263 | 0.0 | 0.0 | 0.00 | 0.00 | 0.00 | 87 | 1012.4 |
| 20260905122921 | 22 | 228 | 0.0 | 0.0 | 0.00 | 0.00 | 0.00 | 87 | 1012.3 |
| 20260905122421 | 23 | 235 | 0.0 | 0.0 | 0.00 | 0.00 | 0.00 | 87 | 1012.2 |
| 20260905121921 | 22 | 238 | 0.0 | 0.0 | 0.00 | 0.00 | 0.00 | 88 | 1012.4 |
| 20260905121421 | 22 | 184 | 0.0 | 0.0 | 0.00 | 0.00 | 0.00 | 89 | 1012.5 |
| 20260905120922 | 22 | 315 | 0.0 | 0.0 | 0.00 | 0.00 | 0.00 | 88 | 1012.5 |
| 20260905120422 | 22 | 218 | 0.0 | 0.0 | 0.00 | 0.00 | 0.00 | 88 | 1012.5 |
| 20260905115922 | 22 | 210 | 0.0 | 0.0 | 0.00 | 0.00 | 0.00 | 89 | 1012.4 |
| 20260905115421 | 22 | 248 | 0.0 | 0.0 | 0.00 | 0.00 | 0.00 | 89 | 1012.3 |
| 20260905114921 | 22 | 183 | 0.0 | 0.0 | 0.00 | 0.00 | 0.00 | 90 | 1012.3 |
| 20260905114421 | 21 | 210 | 0.0 | 0.0 | 0.00 | 0.00 | 0.00 | 91 | 1012.2 |
| 20260905113921 | 21 | 236 | 0.0 | 0.0 | 0.00 | 0.00 | 0.00 | 91 | 1012.0 |
| 20260905113421 | 21 | 259 | 0.0 | 0.0 | 0.00 | 0.00 | 0.00 | 95 | 1011.9 |
| 20260905112921 | 21 | 263 | 0.0 | 0.0 | 0.00 | 0.00 | 0.00 | 95 | 1012.0 |
| 20260905112421 | 21 | 218 | 0.0 | 0.0 | 0.00 | 0.00 | 0.00 | 95 | 1012.1 |
| 20260905111922 | 21 | 206 | 0.0 | 0.0 | 0.00 | 0.00 | 0.00 | 95 | 1012.0 |
| 20260905110921 | 20 | 248 | 0.0 | 0.0 | 0.00 | 0.00 | 0.00 | 95 | 1012.0 |
| 20260905110421 | 20 | 262 | 0.0 | 0.0 | 0.00 | 0.00 | 0.00 | 95 | 1012.0 |
| 20260905105921 | 20 | 259 | 0.0 | 0.0 | 0.00 | 0.00 | 0.00 | 95 | 1011.9 |
| 20260905105421 | 20 | 264 | 0.0 | 0.0 | 0.00 | 0.00 | 0.00 | 95 | 1011.9 |
| 20260905104921 | 20 | 270 | 0.0 | 0.0 | 0.00 | 0.00 | 0.00 | 95 | 1011.7 |
| 20260905104421 | 20 | 257 | 0.0 | 0.0 | 0.00 | 0.00 | 0.00 | 95 | 1011.8 |
| 20260905103421 | 20 | 255 | 0.0 | 0.0 | 0.00 | 0.00 | 0.00 | 94 | 1011.5 |
| 20260905102921 | 20 | 225 | 0.0 | 0.0 | 0.00 | 0.00 | 0.00 | 94 | 1011.5 |
| 20260905102421 | 20 | 263 | 0.0 | 0.0 | 0.00 | 0.00 | 0.00 | 94 | 1011.6 |
| 20260905101922 | 20 | 195 | 0.0 | 0.0 | 0.00 | 0.00 | 0.00 | 94 | 1011.4 |
| 20260905101422 | 20 | 240 | 0.0 | 0.0 | 0.00 | 0.00 | 0.00 | 94 | 1011.3 |
| 20260905100921 | 21 | 232 | 0.0 | 0.0 | 0.00 | 0.00 | 0.00 | 94 | 1011.3 |
| 20260905100421 | 21 | 271 | 0.0 | 0.0 | 0.00 | 0.00 | 0.00 | 93 | 1011.2 |
| 20260905095921 | 21 | 221 | 0.0 | 0.0 | 0.00 | 0.00 | 0.00 | 92 | 1011.3 |
| 20260905095422 | 21 | 232 | 0.0 | 0.0 | 0.00 | 0.00 | 0.00 | 93 | 1011.3 |
| 20260905094921 | 21 | 270 | 0.0 | 0.0 | 0.00 | 0.00 | 0.00 | 94 | 1011.2 |
| 20260905093922 | 21 | 173 | 0.0 | 0.0 | 0.00 | 0.00 | 0.00 | 95 | 1011.3 |
| 20260905093421 | 21 | 187 | 0.0 | 0.0 | 0.00 | 0.00 | 0.00 | 95 | 1011.2 |
| 20260905092921 | 21 | 270 | 0.0 | 0.0 | 0.00 | 0.00 | 0.00 | 95 | 1011.1 |
| 20260905092422 | 21 | 259 | 0.0 | 0.0 | 0.00 | 0.00 | 0.00 | 94 | 1011.0 |
| 20260905090921 | 21 | 153 | 0.0 | 0.0 | 0.00 | 0.00 | 0.00 | 93 | 1011.0 |
| 20260905090421 | 21 | 202 | 0.0 | 0.0 | 0.00 | 0.00 | 0.00 | 93 | 1011.1 |
| 20260905085921 | 21 | 248 | 0.0 | 0.0 | 0.00 | 0.00 | 0.00 | 91 | 1011.0 |
| 20260905085421 | 21 | 210 | 0.0 | 0.0 | 0.00 | 0.00 | 0.00 | 91 | 1010.9 |
| 20260905084421 | 22 | 300 | 0.0 | 0.0 | 0.00 | 0.00 | 0.00 | 90 | 1010.9 |
| 20260905083921 | 22 | 158 | 0.0 | 0.0 | 0.00 | 0.00 | 0.00 | 90 | 1011.0 |
| 20260905083421 | 22 | 248 | 0.0 | 0.0 | 0.00 | 0.00 | 0.00 | 90 | 1011.0 |
| 20260905082921 | 22 | 259 | 0.0 | 0.0 | 0.00 | 0.00 | 0.00 | 90 | 1011.0 |
| 20260905082421 | 22 | 259 | 0.0 | 0.0 | 0.00 | 0.00 | 0.00 | 89 | 1011.0 |
| 20260905081921 | 22 | 240 | 0.0 | 0.0 | 0.00 | 0.00 | 0.00 | 88 | 1011.1 |
| 20260905081421 | 22 | 153 | 0.0 | 0.0 | 0.00 | 0.00 | 0.00 | 87 | 1011.2 |
| 20260905080422 | 22 | 139 | 1.6 | 0.0 | 0.00 | 0.00 | 0.00 | 88 | 1011.3 |
| 20260905075921 | 22 | 134 | 0.0 | 0.0 | 0.00 | 0.00 | 0.00 | 88 | 1011.4 |
| 20260905074921 | 22 | 113 | 3.2 | 0.0 | 0.00 | 0.00 | 0.00 | 89 | 1011.3 |
| 20260905074421 | 22 | 281 | 0.0 | 0.0 | 0.00 | 0.00 | 0.00 | 91 | 1011.3 |
| 20260905073921 | 22 | 185 | 0.0 | 0.0 | 0.00 | 0.00 | 0.00 | 94 | 1011.4 |
| 20260905073421 | 22 | 255 | 0.0 | 0.0 | 0.00 | 0.00 | 0.00 | 95 | 1011.3 |
| 20260905072921 | 22 | 255 | 0.0 | 0.0 | 0.00 | 0.00 | 0.00 | 96 | 1011.3 |
| 20260905072421 | 22 | 150 | 0.0 | 0.0 | 0.00 | 0.00 | 0.00 | 96 | 1011.3 |
| 20260905071921 | 22 | 255 | 0.0 | 0.0 | 0.00 | 0.00 | 0.00 | 96 | 1011.2 |
| 20260905071421 | 22 | 173 | 0.0 | 0.0 | 0.00 | 0.00 | 0.00 | 96 | 1011.4 |
| 20260905070921 | 22 | 210 | 0.0 | 0.0 | 0.00 | 0.00 | 0.00 | 96 | 1011.4 |
| 20260905070421 | 22 | 242 | 0.0 | 0.0 | 0.00 | 0.00 | 0.00 | 96 | 1011.3 |
| 20260905065921 | 22 | 263 | 0.0 | 0.0 | 0.00 | 0.00 | 0.00 | 96 | 1011.3 |
| 20260905065421 | 21 | 263 | 0.0 | 0.0 | 0.00 | 0.00 | 0.00 | 96 | 1011.4 |
| 20260905064921 | 21 | 255 | 0.0 | 0.0 | 0.00 | 0.00 | 0.00 | 96 | 1011.4 |
| 20260905064421 | 22 | 270 | 0.0 | 0.0 | 0.00 | 0.00 | 0.00 | 96 | 1011.2 |
| 20260905063921 | 22 | 176 | 0.0 | 0.0 | 0.00 | 0.00 | 0.00 | 96 | 1011.2 |
| 20260905063421 | 22 | 222 | 0.0 | 0.0 | 0.00 | 0.00 | 0.00 | 96 | 1011.3 |
| 20260905062921 | 22 | 225 | 0.0 | 0.0 | 0.00 | 0.00 | 0.00 | 96 | 1011.3 |
| 20260905062421 | 22 | 210 | 0.0 | 0.0 | 0.00 | 0.00 | 0.00 | 96 | 1011.4 |
| 20260905061921 | 22 | 219 | 0.0 | 0.0 | 0.00 | 0.00 | 0.00 | 95 | 1011.4 |
| 20260905060921 | 22 | 255 | 0.0 | 0.0 | 0.00 | 0.00 | 0.00 | 95 | 1011.5 |
| 20260905060421 | 22 | 218 | 0.0 | 0.0 | 0.00 | 0.00 | 0.00 | 95 | 1011.5 |
| 20260905055921 | 22 | 240 | 0.0 | 0.0 | 0.00 | 0.00 | 0.00 | 95 | 1011.5 |
| 20260905055421 | 22 | 263 | 0.0 | 0.0 | 0.00 | 0.00 | 0.00 | 95 | 1011.6 |
| 20260905054921 | 22 | 240 | 0.0 | 0.0 | 0.00 | 0.00 | 0.00 | 95 | 1011.6 |
| 20260905054421 | 22 | 240 | 0.0 | 0.0 | 0.00 | 0.00 | 0.00 | 95 | 1011.6 |
| 20260905053921 | 22 | 172 | 0.0 | 0.0 | 0.00 | 0.00 | 0.00 | 95 | 1011.6 |
| 20260905053421 | 22 | 242 | 0.0 | 0.0 | 0.00 | 0.00 | 0.00 | 95 | 1011.8 |
| 20260905052921 | 22 | 231 | 0.0 | 0.0 | 0.00 | 0.00 | 0.00 | 95 | 1011.8 |
| 20260905052421 | 22 | 248 | 0.0 | 0.0 | 0.00 | 0.00 | 0.00 | 95 | 1011.9 |
| 20260905051921 | 22 | 240 | 0.0 | 0.0 | 0.00 | 0.00 | 0.00 | 95 | 1012.0 |
| 20260905050921 | 22 | 195 | 0.0 | 0.0 | 0.00 | 0.00 | 0.00 | 94 | 1012.0 |
| 20260905050421 | 22 | 225 | 0.0 | 0.0 | 0.00 | 0.00 | 0.00 | 94 | 1012.0 |
| 20260905045921 | 22 | 225 | 0.0 | 0.0 | 0.00 | 0.00 | 0.00 | 94 | 1012.1 |
| 20260905045422 | 22 | 255 | 0.0 | 0.0 | 0.00 | 0.00 | 0.00 | 95 | 1012.1 |
| 20260905044921 | 22 | 225 | 0.0 | 0.0 | 0.00 | 0.00 | 0.00 | 95 | 1012.0 |
| 20260905044421 | 22 | 214 | 0.0 | 0.0 | 0.00 | 0.00 | 0.00 | 95 | 1012.0 |
| 20260905043921 | 22 | 225 | 0.0 | 0.0 | 0.00 | 0.00 | 0.00 | 94 | 1012.1 |
| 20260905043421 | 23 | 248 | 0.0 | 0.0 | 0.00 | 0.00 | 0.00 | 94 | 1012.0 |
| 20260905042921 | 23 | 240 | 0.0 | 0.0 | 0.00 | 0.00 | 0.00 | 94 | 1012.0 |
| 20260905042424 | 23 | 270 | 0.0 | 0.0 | 0.00 | 0.00 | 0.00 | 94 | 1011.9 |
| 20260905041921 | 23 | 240 | 0.0 | 0.0 | 0.00 | 0.00 | 0.00 | 94 | 1012.0 |
| 20260905041421 | 23 | 255 | 0.0 | 0.0 | 0.00 | 0.00 | 0.00 | 94 | 1012.1 |
| 20260905040921 | 23 | 270 | 0.0 | 0.0 | 0.00 | 0.00 | 0.00 | 93 | 1012.1 |
| 20260905040421 | 23 | 150 | 0.0 | 0.0 | 0.00 | 0.00 | 0.00 | 93 | 1012.1 |